Location: Cutler
(25.6150°N, 80.3110°W)
Time: 20:16:56
(UTC-05:00)

Vanguard 1 - Pass Details

Date: 31 January 2018
Orbit: 650 x 3833 km, 34.2° (Epoch: 21 February)

Event Time Altitude Azimuth Distance (km) Brightness Sun altitude
Rises 18:46:06 0° 227° (SW) 3,574 14.1 -9.8°
Reaches altitude 10° 18:49:07 10° 219° (SW) 2,360 12.9 -10.5°
Maximum altitude 18:53:51 39° 150° (SSE) 995 10.0 -11.5°
Enters shadow 18:56:51 17° 88° (E) 1,635 10.6 -12.2°
Drops below altitude 10° 18:57:57 10° 81° (E) 2,048 - -12.4°
Sets 19:00:23 0° 73° (ENE) 3,034 - -12.9°
